Flag for India Weather past 2 weeks in Chennai, Tamil Nadu, India

Now
75 °F

Haze.


Feels Like: 75 °F
Forecast: 70 / 83 °F
Wind: 3 mph from Northeast

Location: Madras / Minambakkam

Current Time: Feb 2, 2015 at 1:54:07 AM

Latest Report: Feb 2, 2015 at 12:40 AM


Visibility: 3 mi

Pressure: 29.98 "Hg

Humidity: 83%

Dew point: 70 °F

Location of ChennaiLocation

Historic Weather in Chennai — Graph

°F

Chennai temperature yesterday

Maximum temperature yesterday: 86 °F (at 1:40 PM)
Minimum temperature yesterday: 70 °F (at 5:40 AM)
Average temperature yesterday: 77 °F

Past Weeks' High & Low Weather Summary

 TemperatureHumidityPressure
High86 °F (Jan 23, 2:40 PM)100% (Jan 18, 6:40 AM)30.09 "Hg (Jan 18, 6:40 AM)
Low68 °F (Jan 18, 5:40 AM)40% (Jan 21, 2:40 PM)29.83 "Hg (Jan 28, 2:40 PM)
Average77 °F76%29.97 "Hg
* Reported Jan 17 11:40 PM — Feb 1 11:40 PM, Chennai, Weather by CustomWeather, © 2014

Note: Actual official high and low records may vary slightly from our data, if they occured in-between our weather recording intervals... More about our weather records

Advertising

Chennai weather history for previous 24 hours

 ConditionsComfort  
Time TempWeatherWind HumidityBarometerVisibility
11:40 PM
Feb 1
75 °FHaze.3 mph83%29.98 "Hg3 mi
10:40 PM75 °FHaze.3 mph83%30.01 "Hg3 mi
9:40 PM77 °FHaze.6 mph79%30.01 "Hg3 mi
8:40 PM77 °FHaze.7 mph79%29.98 "Hg3 mi
7:40 PM77 °FHaze.5 mph79%29.95 "Hg3 mi
6:40 PM77 °FHaze.7 mph79%29.95 "Hg3 mi
5:40 PM81 °FScattered clouds.12 mph66%29.92 "Hg4 mi
4:40 PM84 °FScattered clouds.12 mph58%29.92 "Hg4 mi
3:40 PM84 °FScattered clouds.14 mph58%29.89 "Hg4 mi
2:40 PM86 °FScattered clouds.10 mph55%29.92 "Hg4 mi
1:40 PM86 °FScattered clouds.14 mph55%29.95 "Hg4 mi
12:40 PM84 °FScattered clouds.14 mph66%29.98 "Hg3 mi
10:40 AM82 °FScattered clouds.8 mph70%30.04 "Hg2 mi
6:40 AM70 °FFog.2 mph100%29.98 "Hg2 mi
5:40 AM70 °FFog.No wind94%29.95 "Hg2 mi
4:40 AM72 °FFog.2 mph94%29.95 "Hg3 mi
3:40 AM72 °FFog.No wind94%29.92 "Hg3 mi
2:40 AM72 °FFog.No wind94%29.92 "Hg3 mi
1:40 AM73 °FFog.No wind89%29.95 "Hg3 mi
Weather by CustomWeather, © 2014

See weather overviewHow to use our weather pages